Regional Weather Roundup
Issued by NWS

Current Version | Previous Version | Text Only | Print | Product List | Glossary On
Versions: 1 2 3 4 5 6 7 8 9 10 11 12 13 14 15 16 17 18 19 20 21 22 23 24 25 26 27 28 29 30 31 32 33 34 35 36 37 38 39 40 41 42 43 44 45 46 47 48 49 50
000
ASUS44 KOUN 271210
RWROK

WEATHER ROUNDUP FOR OKLAHOMA
NATIONAL WEATHER SERVICE NORMAN OK
600 AM CST TUE JAN 27 2015

NOTE: "FAIR" INDICATES FEW OR NO CLOUDS BELOW 12,000 FEET WITH NO
      SIGNIFICANT WEATHER AND/OR OBSTRUCTIONS TO VISIBILITY.

OKZ001>007-009>012-014-015-017-271300-
NORTHWEST OKLAHOMA AND THE PANHANDLE

CITY           SKY/WX    TMP DP  RH WIND       PRES   REMARKS
GAGE           CLEAR     36  31  82 W7        30.14S WCI  30
6HR MIN TEMP:  36; 6HR MAX TEMP:  42;

$$

OKZ016-021>023-033>039-044-045-271300-
SOUTHWEST OKLAHOMA

CITY           SKY/WX    TMP DP  RH WIND       PRES   REMARKS
LAWTON/REGL    CLEAR     37  32  82 N5        30.11S WCI  33
6HR MIN TEMP:  34; 6HR MAX TEMP:  48;

LAWTON/FT SILL CLEAR     40  33  78 N8        30.10S WCI  34
FREDERICK      CLEAR     44  35  70 NW14      30.09S
CLINTON        CLEAR     47  35  63 NW12      30.14S
HOBART         CLEAR     39  33  79 N7        30.13R WCI  34
ALTUS AFB      CLEAR     42  36  80 NW8       30.14R
$$

OKZ018>020-024>031-271300-
CENTRAL OKLAHOMA

CITY           SKY/WX    TMP DP  RH WIND       PRES   REMARKS
OKLAHOMA CITY  CLEAR     43  32  65 NW3       30.10S
6HR MIN TEMP:  43; 6HR MAX TEMP:  53;

OKC/WILEY POST CLEAR     42  33  70 CALM      30.12S
OKC/TINKER AFB CLEAR     48  33  57 N7        30.10S
STILLWATER     CLEAR     37  30  75 NE5       30.11R WCI  33
GUTHRIE        CLEAR     37  32  82 S3        30.11S
$$

OKZ008-013-054>072-271300-
NORTHEAST OKLAHOMA

CITY           SKY/WX    TMP DP  RH WIND       PRES   REMARKS
TULSA          CLEAR     38  34  85 CALM      30.11R
6HR MIN TEMP:  35; 6HR MAX TEMP:  48;

TULSA/JONES    CLEAR     31  30  96 CALM      30.12R
PONCA CITY     CLEAR     33  29  85 CALM      30.11S
BARTLESVILLE   CLEAR     27  26  96 CALM      30.13R
MUSKOGEE       CLEAR     38  33  82 N3        30.13R
$$

OKZ032-040>043-046>053-073>077-271300-
SOUTH CENTRAL/SOUTHEAST OKLAHOMA

CITY           SKY/WX    TMP DP  RH WIND       PRES   REMARKS
ARDMORE/DWNTWN CLEAR     45  36  70 CALM      30.10S
MCALESTER      CLEAR     35  31  85 CALM      30.11R
$$




USA.gov is the U.S. government's official web portal to all federal, state and local government web resources and services.